Skip Page Navigation
NASA JPL Caltech
NASA Logo - Jet Propulsion Laboratory + View the NASA Portal
+ Near-Earth Object (NEO) Program
Search JPL
JPL Home Earth Solar System Stars & Galaxies Technology
JPL Solar System Dynamics
BODIES ORBITS EPHEMERIDES TOOLS PHYSICAL DATA DISCOVERY FAQ SITE MAP
JPL Small-Body Database Browser
Search: [ help ]  
6343 (1993 VK)
Classification: Main-belt Asteroid          SPK-ID: 2006343
Ephemeris | Orbit Diagram | Orbital Elements | Physical Parameters | Discovery Circumstances ]

[ show orbit diagram ]
Orbital Elements at Epoch 2457000.5 (2014-Dec-09.0) TDB
Reference: JPL 6 (heliocentric ecliptic J2000)
 Element Value Uncertainty (1-sigma)   Units 
e .09697064616764671 7.4228e-08  
a 3.167329861102305 3.6692e-08 AU
q 2.860191837845131 2.4688e-07 AU
i 8.666348411365465 7.9332e-06 deg
node 335.8612871056088 3.7502e-05 deg
peri 27.33320525482964 5.0419e-05 deg
M 316.0890276548108 3.7531e-05 deg
tp 2457251.635971283676
(2015-Aug-17.13597128)
0.00021667 JED
period 2058.914773086963
5.64
3.5778e-05
9.795e-08
d
yr
n .1748493938193694 3.0383e-09 deg/d
Q 3.474467884359478 4.025e-08 AU
  Orbit Determination Parameters
   # obs. used (total)      1050  
   data-arc span      22208 days (60.80 yr)  
   first obs. used      1953-09-16  
   last obs. used      2014-07-06  
   planetary ephem.      DE431  
   SB-pert. ephem.      SB431-BIG16  
   condition code      0  
   fit RMS      .4542  
   data source      ORB  
   producer      Otto Matic  
   solution date      2014-Jul-14 12:14:17  

Additional Information
 Earth MOID = 1.86027 AU 
 T_jup = 3.178 
[ show covariance matrix ]

Ephemeris | Orbit Diagram | Orbital Elements | Physical Parameters | Discovery Circumstances ]

Physical Parameter Table
Parameter Symbol Value Units Sigma Reference Notes
absolute magnitude H 12.2 mag n/a MPO263405  

6343 (1993 VK)          Discovered 1993-Nov-07 by Ueda & Kaneda at Kushiro (399)
Reference: DISCOVERY.DBLast Updated: 2003-08-29

Alternate Designations
 1993 VK = 1970 SK = 1978 EG1 = 1981 RM4 = 1981 SZ3 = 1983 AX4 = 1992 OV9 
Ephemeris | Orbit Diagram | Orbital Elements | Physical Parameters | Discovery Circumstances ]
ABOUT SSD CREDITS/AWARDS PRIVACY/COPYRIGHT GLOSSARY LINKS
FirstGov 2014-Sep-21 22:10 UT
(server date/time)  
NASA Home Page
Site Manager:   Donald K. Yeomans
Webmaster  Alan B. Chamberlin